STARLINK-32230 (60366 NORAD) Tracking and Keplerian Element Data

This shows tracking and keplerian element data for the satellite.

Feedback or suggestion? Click here.




ElementValue
Catalog60366
NameSTARLINK-32230
Epoch Orbit1201
Epoch Day286.72896389
Epoch Year2024
RAAN177.7532
Inclination53.1601
Eccentricity0.0001357
Argument of Perigee12.1866
Mean Anonmoly347.9172
Mean Motion15.39638439
Decay Rate4.433E-05
L11 60366U 24138M 24286.72896389 .00004433 00000+0 12067-3 0 9995
L22 60366 53.1601 177.7532 0001357 12.1866 347.9172 15.39638439 12019



Live tracking and technical data element details for STARLINK-32230 (NORAD 60366). STARLINK-32230 can be tracked NOW for your location showing map with azimuth and elevation plus other details from your city location.







IsCatalogInMostPopularTable: catalog: 60366, numindb: 8
Update: records affected: 1



GetName: 60366 STARLINK-32230

Hit Count: updated at: Fri, 06 Dec 2024 11:32:43 GMT